Terug naar catalogus

YAM-16

ActiefCommunicatieSSO
NORAD 68992·PAYLOAD·🇺🇸 United States

Gelanceerd May 3, 2026 vanaf Vandenberg Space Force Base

Loading…

Volgende Passages (komende 24 uur)

TLE

VersSource: Space-Track

Epoch: Sep 14, 2026, 12:13 UTC

1 68992U 26100N   26257.50938152  .00001100  00000-0  11497-3 0  9995
2 68992  97.7242 153.2007 0002760 179.4298 180.6924 14.91657563 20010

Volg YAM-16 in realtime met AllMySat

Download on the App Store